{"data":{"norad_id":37214,"intl_designator":"2010-059A","name":"FENGYUN 3B","alt_names":[],"object_type":"PAYLOAD","status":"ACTIVE","operator":null,"country":"PRC","launch_date":"2010-11-04","launch_site_code":"TAISC","launch_vehicle":null,"mission":null,"orbit_class":"UNKNOWN","rcs_meters":6.2136,"size_class":null,"mass_kg":null,"dimensions":null,"purposes":["earth_obs"],"wikipedia_slug":null,"has_3d_model":false,"image_url":null,"decayed_at":null,"tle_current":{"epoch":"2026-05-25T04:25:07.626720Z","epoch_age_seconds":52513,"freshness":"FRESH","line1":"1 37214U 10059A   26145.18411605  .00000015  00000+0  31079-4 0  9995","line2":"2 37214  98.9636 191.0996 0021043 251.2401 197.2720 14.14836155804176","mean_motion":14.14836155,"eccentricity":0.0021043,"inclination_deg":98.9636,"raan_deg":191.0996,"arg_perigee_deg":251.2401,"mean_anomaly_deg":197.272,"bstar":3.1079e-5,"rev_number":80417,"period_min":101.77856954751,"perigee_km":827.67443297601,"apogee_km":858.06476134081,"semimajor_km":7221.0065971584,"source":"CELESTRAK","updated_at":"2026-05-25T13:38:11.912637Z"}}}